Location: Chena
(64.8152°N, 147.9227°W)
Time: 12:52:22
(UTC+00:00)

N. Korean satellite - Pass Details

Date: 24 January 2021
Orbit: 451 x 503 km, 97.2° (Epoch: 28 February)

Event Time Altitude Azimuth Distance (km) Brightness Sun altitude
Rises 14:31:27 0° 22° (NNE) 2,544 10.7 -27.0°
Reaches altitude 10° 14:33:56 10° 39° (NE) 1,649 9.9 -26.7°
Maximum altitude 14:36:38 20° 89° (E) 1,139 9.2 -26.4°
Drops below altitude 10° 14:39:16 10° 139° (SE) 1,619 9.5 -26.1°
Sets 14:41:41 0° 157° (SSE) 2,480 10.3 -25.9°
